Location: ????????
(55.7667°N, 37.4833°E)
Time: 10:47:41
(UTC+00:00)

Cosmos 1328 Rocket - Pass Details

Date: 19 May 2025
Orbit: 596 x 618 km, 82.5° (Epoch: 13 June)

Event Time Altitude Azimuth Distance (km) Brightness Sun altitude
Exits shadow 21:46:15 23° 168° (SSE) 1,310 4.6 -14.1°
Maximum altitude 21:48:49 58° 97° (E) 710 3.8 -14.1°
Drops below altitude 10° 21:53:05 10° 18° (NNE) 1,966 7.5 -14.1°
Sets 21:55:20 0° 15° (NNE) 2,879 8.9 -14.0°
